EDT,Max TemperatureF,Mean TemperatureF,Min TemperatureF,Max Dew PointF,MeanDew PointF,Min DewpointF,Max Humidity, Mean Humidity, Min Humidity, Max Sea Level PressureIn, Mean Sea Level PressureIn, Min Sea Level PressureIn, Max VisibilityMiles, Mean VisibilityMiles, Min VisibilityMiles, Max Wind SpeedMPH, Mean Wind SpeedMPH, Max Gust SpeedMPH,PrecipitationIn, CloudCover, Events, WindDirDegrees
2013-10-1,72,64,57,60,58,56,93,80,61,30.05,30.01,29.96,10,10,8,14,9,22,0.00,2,,219
2013-10-2,71,62,52,64,59,49,90,79,65,30.11,30.03,29.97,10,9,6,17,10,28,0.00,4,,238
2013-10-3,72,58,45,62,53,43,97,80,55,30.13,30.07,30.01,10,9,2,8,6,,0.09,3,Rain,207
2013-10-4,75,68,64,66,64,62,94,84,73,30.06,30.03,29.99,10,9,4,17,10,25,0.07,6,Rain,226
2013-10-5,72,67,62,64,63,61,100,93,76,30.09,30.04,29.96,10,6,0,10,5,,0.02,6,Fog-Rain-Thunderstorm,297
2013-10-6,82,73,64,67,64,58,100,77,50,29.97,29.85,29.69,10,9,2,22,10,31,0.16,4,Rain-Thunderstorm,196
2013-10-7,69,60,51,64,52,41,94,83,53,30.09,29.81,29.69,10,8,2,25,13,34,1.08,7,Rain,230
2013-10-8,62,54,45,48,45,42,93,75,48,30.34,30.27,30.10,10,10,10,16,8,,0.00,2,,259
2013-10-9,66,55,46,49,44,39,93,68,50,30.39,30.32,30.27,10,10,10,10,7,20,0.00,0,,200
2013-10-10,68,54,39,47,42,37,93,69,39,30.29,30.22,30.12,10,10,10,9,5,,0.00,0,,193
2013-10-11,70,57,44,48,44,39,93,70,39,30.16,30.13,30.11,10,10,10,10,6,,0.00,0,,36
2013-10-12,73,58,42,56,47,40,93,68,40,30.17,30.14,30.10,10,10,10,13,4,20,0.00,1,,193
2013-10-13,69,64,60,61,56,39,100,79,39,30.28,30.24,30.15,10,8,2,21,10,31,0.29,7,Rain,215
2013-10-14,60,52,43,57,49,40,94,82,49,30.37,30.32,30.29,10,8,2,15,9,21,0.12,5,Rain,302
2013-10-15,70,54,39,56,50,39,97,77,58,30.29,30.11,29.91,10,10,10,20,6,25,0.00,3,,177
2013-10-16,68,62,57,59,55,47,94,80,60,29.90,29.84,29.77,10,8,2,22,17,38,0.51,7,Rain,212
2013-10-17,63,56,51,54,49,45,100,83,60,29.89,29.80,29.73,10,7,1,16,9,26,0.69,7,Rain,237
2013-10-18,60,54,50,47,42,37,89,68,53,29.93,29.87,29.77,10,10,4,20,14,32,0.12,6,Rain,231
2013-10-19,57,50,44,49,43,38,94,75,56,29.88,29.77,29.68,10,8,2,22,11,36,0.45,6,Rain-Thunderstorm,222
2013-10-20,55,48,42,45,40,36,90,80,52,29.98,29.90,29.82,10,9,2,22,11,38,0.52,7,Rain-Thunderstorm,208
2013-10-21,64,56,48,50,41,34,94,64,33,29.97,29.87,29.81,10,8,2,23,15,38,0.45,4,Rain,218
2013-10-22,51,47,42,48,37,29,89,69,56,29.90,29.84,29.79,10,9,2,21,13,33,0.28,8,Rain,254
2013-10-23,46,42,39,39,35,27,93,78,53,29.86,29.79,29.73,10,9,5,21,9,28,0.19,8,Rain,234
2013-10-24,46,44,41,36,30,24,76,60,46,30.05,29.94,29.84,10,10,6,22,15,33,0.02,6,Rain,269
2013-10-25,48,42,39,38,36,31,87,74,59,30.23,30.16,30.04,10,10,9,21,14,29,0.16,8,Rain,274
2013-10-26,45,42,39,38,29,25,89,61,47,30.12,29.91,29.82,10,10,7,28,19,38,0.12,8,Rain,212
2013-10-27,46,44,42,37,33,27,76,65,47,30.07,29.98,29.87,10,10,10,20,14,32,0.01,7,Rain,257
2013-10-28,50,42,37,39,33,21,74,64,49,30.39,30.25,30.06,10,10,10,18,11,24,0.00,6,,27
2013-10-29,48,38,28,37,29,26,92,66,44,30.45,30.39,30.29,10,10,10,8,3,,0.00,4,,55
2013-10-30,57,46,34,42,37,32,93,75,51,30.27,30.19,30.09,10,10,10,8,3,,0.00,1,,90
2013-10-31,66,60,53,58,54,43,94,81,65,30.05,29.76,29.33,10,8,2,33,16,47,0.94,6,Rain,192